Flag for Switzerland Weather past 2 weeks in Liestal, Basel-Land, Switzerland

Now
68 °F

Partly sunny.


Feels Like: 68 °F
Forecast: 45 / 71 °F
Wind: 3 mph from Northwest

Location: Bale-Mulhouse

Current Time: Aug 21, 2014 at 8:02:05 PM

Latest Report: Aug 21, 2014 at 7:30 PM


Visibility: N/A

Pressure: 30.01 "Hg

Humidity: 49%

Dew point: 48 °F

Location of LiestalLocation

Historic Weather in Liestal — Graph

°F

Liestal temperature yesterday

Maximum temperature yesterday: 68 °F (at 1:30 PM)
Minimum temperature yesterday: 50 °F (at 5:00 AM)
Average temperature yesterday: 59 °F

Past Weeks' High & Low Weather Summary

 TemperatureHumidityPressure
High82 °F (Aug 8, 4:00 PM)100% (Aug 7, 2:30 AM)30.18 "Hg (Aug 7, 2:30 AM)
Low46 °F (Aug 21, 6:30 AM)43% (Aug 19, 5:00 PM)29.68 "Hg (Aug 13, 9:00 AM)
Average63 °F78%29.98 "Hg
* Reported Aug 6 7:00 PM — Aug 21 7:00 PM, Liestal, Weather by CustomWeather, © 2014

Note: Actual official high and low records may vary slightly from our data, if they occured in-between our weather recording intervals... More about our weather records

Advertising

Liestal weather history for previous 24 hours

 ConditionsComfort  
Time TempWeatherWind HumidityBarometerVisibility
7:00 PM
Aug 21
68 °FScattered clouds.6 mph46%30.01 "HgN/A
6:30 PM68 °FPartly sunny.6 mph46%30.01 "HgN/A
6:00 PM68 °FScattered clouds.6 mph49%30.01 "HgN/A
5:30 PM68 °FScattered clouds.7 mph49%30.01 "HgN/A
5:00 PM70 °FScattered clouds.7 mph46%30.01 "HgN/A
4:30 PM70 °FScattered clouds.7 mph43%30.04 "HgN/A
4:00 PM68 °FScattered clouds.5 mph49%30.04 "HgN/A
3:30 PM68 °FScattered clouds.5 mph49%30.04 "HgN/A
3:00 PM66 °FBroken clouds.5 mph49%30.04 "HgN/A
2:30 PM68 °FBroken clouds.5 mph49%30.04 "HgN/A
2:00 PM68 °FBroken clouds.5 mph49%30.07 "HgN/A
1:30 PM68 °FBroken clouds.3 mph46%30.07 "HgN/A
1:00 PM66 °FBroken clouds.3 mph52%30.07 "HgN/A
12:30 PM66 °FBroken clouds.3 mph52%30.07 "HgN/A
12:00 PM66 °FBroken clouds.2 mph56%30.07 "HgN/A
11:30 AM64 °FPartly sunny.2 mph60%30.09 "HgN/A
11:00 AM64 °FPartly sunny.2 mph60%30.09 "HgN/A
10:30 AM63 °FScattered clouds.2 mph64%30.09 "HgN/A
10:00 AM61 °FPassing clouds.1 mph68%30.09 "HgN/A
9:30 AM59 °FPassing clouds.2 mph72%30.09 "HgN/A
9:00 AM57 °FPassing clouds.2 mph82%30.09 "HgN/A
8:30 AM55 °FSunny.2 mph82%30.09 "Hg10 mi
8:00 AM50 °FSunny.No wind100%30.09 "Hg10 mi
7:30 AM48 °FClear.2 mph100%30.09 "Hg10 mi
7:00 AM46 °FPassing clouds.2 mph93%30.09 "HgN/A
6:30 AM46 °FPassing clouds.1 mph100%30.09 "HgN/A
6:00 AM48 °FPassing clouds.1 mph94%30.07 "HgN/A
5:30 AM48 °FClear.No wind100%30.07 "Hg10 mi
5:00 AM50 °FClear.2 mph94%30.07 "Hg10 mi
4:30 AM52 °FClear.No wind94%30.07 "Hg10 mi
4:00 AM52 °FClear.No wind94%30.07 "HgN/A
3:30 AM52 °FClear.1 mph94%30.07 "HgN/A
3:00 AM52 °FClear.1 mph94%30.07 "HgN/A
2:30 AM52 °FClear.2 mph94%30.07 "HgN/A
2:00 AM54 °FClear.1 mph94%30.07 "HgN/A
1:30 AM54 °FClear.No wind94%30.07 "HgN/A
1:00 AM54 °FClear.No wind94%30.07 "HgN/A
12:30 AM54 °FClear.2 mph88%30.07 "HgN/A
12:00 AM54 °FPartly cloudy.3 mph88%30.07 "HgN/A
11:30 PM
Aug 20
54 °FPartly cloudy.2 mph88%30.07 "HgN/A
11:00 PM54 °FPassing clouds.No wind88%30.07 "HgN/A
10:30 PM55 °FPassing clouds.5 mph82%30.04 "HgN/A
10:00 PM55 °FPartly cloudy.6 mph82%30.04 "HgN/A
9:30 PM57 °FBroken clouds.5 mph77%30.04 "HgN/A
9:00 PM57 °FScattered clouds.6 mph77%30.01 "HgN/A
8:30 PM59 °FBroken clouds.7 mph72%30.01 "HgN/A
8:00 PM61 °FBroken clouds.8 mph68%30.01 "HgN/A
Weather by CustomWeather, © 2014

See weather overviewHow to use our weather pages